KB2SKP Weather Reports


Display with metric or nautical units.
time (UTC)temp
F
wind
direction
speed
MPH
gust
MPH
rain 1hr
in
rain 24hr
in
rain mn
in
humidity
%
barometer
mb
20260509090231 55 82 0.0 2.0 0.00 0.00 0.00 87 1009.0
20260509085728 55 86 0.0 2.0 0.00 0.00 0.00 86 1008.8
20260509085225 55 214 0.0 2.0 0.00 0.00 0.00 85 1008.8
20260509084722 55 30 0.0 2.0 0.00 0.00 0.00 85 1009.0
20260509084218 56 147 0.0 2.0 0.00 0.00 0.00 84 1008.9
20260509083717 56 59 0.0 1.0 0.00 0.00 0.00 84 1008.9
20260509083213 56 191 0.0 2.0 0.00 0.00 0.00 84 1008.9
20260509082710 56 164 0.0 3.0 0.00 0.00 0.00 83 1008.9
20260509082206 57 57 0.0 2.0 0.00 0.00 0.00 82 1008.9
20260509081703 57 88 2.0 2.0 0.00 0.00 0.00 82 1009.0
20260509081200 57 35 0.0 2.0 0.00 0.00 0.00 82 1009.0
20260509080659 57 65 2.0 2.0 0.00 0.00 0.00 82 1009.1
20260509080156 57 50 2.0 3.0 0.00 0.00 0.00 81 1009.1
20260509075654 57 54 2.0 3.0 0.00 0.00 0.00 81 1009.2
20260509075151 57 89 2.0 3.0 0.00 0.00 0.00 81 1009.2
20260509074648 57 82 1.0 3.0 0.00 0.00 0.00 80 1009.1
20260509074145 57 97 2.0 3.0 0.00 0.00 0.00 80 1009.1
20260509073642 57 92 2.0 3.0 0.00 0.00 0.00 80 1009.3
20260509073138 57 93 2.0 3.0 0.00 0.00 0.00 79 1009.6
20260509072635 57 109 1.0 3.0 0.00 0.00 0.00 79 1009.4
20260509072132 57 54 1.0 3.0 0.00 0.00 0.00 79 1009.1
20260509071628 58 61 1.0 3.0 0.00 0.00 0.00 78 1009.4
20260509071126 58 88 0.0 3.0 0.00 0.00 0.00 78 1009.3
20260509070623 58 80 1.0 2.0 0.00 0.00 0.00 78 1009.3
20260509070119 58 83 2.0 2.0 0.00 0.00 0.00 77 1009.2
20260509065614 58 69 0.0 3.0 0.00 0.00 0.00 76 1009.2
20260509065111 58 339 0.0 4.0 0.00 0.00 0.00 76 1009.3
20260509064608 58 130 0.0 4.0 0.00 0.00 0.00 76 1009.3
20260509064107 58 92 2.0 2.0 0.00 0.00 0.00 75 1009.5
20260509063603 58 108 2.0 3.0 0.00 0.00 0.00 74 1009.6
20260509063059 59 116 2.0 3.0 0.00 0.00 0.00 74 1009.5
20260509062556 58 126 2.0 4.0 0.00 0.00 0.00 75 1009.7
20260509062054 58 66 0.0 3.0 0.00 0.00 0.00 75 1009.7
20260509061550 58 113 1.0 3.0 0.00 0.00 0.00 75 1009.4
20260509061048 58 133 2.0 3.0 0.00 0.00 0.00 77 1009.6
20260509060545 57 302 1.0 2.0 0.00 0.00 0.00 78 1009.6
20260509060041 57 182 0.0 3.0 0.00 0.00 0.00 78 1009.5
20260509055536 56 138 2.0 2.0 0.00 0.00 0.00 80 1009.5
20260509055033 56 95 1.0 2.0 0.00 0.00 0.00 81 1009.4
20260509054529 55 85 0.0 2.0 0.00 0.00 0.00 82 1009.5
20260509054027 55 97 0.0 3.0 0.00 0.00 0.00 83 1009.4
20260509053525 54 89 0.0 3.0 0.00 0.00 0.00 83 1009.7
20260509053016 54 148 0.0 2.0 0.00 0.00 0.00 83 1009.6
20260509052514 54 171 0.0 1.0 0.00 0.00 0.00 84 1009.6
20260509052012 54 85 0.0 2.0 0.00 0.00 0.00 83 1009.8
20260509051510 55 80 0.0 1.0 0.00 0.00 0.00 82 1009.7
20260509051007 55 155 0.0 2.0 0.00 0.00 0.00 82 1009.8
20260509050503 55 117 2.0 2.0 0.00 0.00 0.00 82 1009.9
20260509050000 55 113 2.0 3.0 0.00 0.00 0.00 82 1009.7
20260509045457 55 83 2.0 2.0 0.00 0.00 0.00 81 1009.6
20260509044954 55 124 2.0 2.0 0.00 0.00 0.00 81 1009.5
20260509044452 55 125 2.0 3.0 0.00 0.00 0.00 81 1009.9
20260509043949 55 109 2.0 3.0 0.00 0.00 0.00 81 1009.7
20260509043444 55 114 2.0 3.0 0.00 0.00 0.00 81 1009.8
20260509042940 55 95 0.0 2.0 0.00 0.00 0.00 80 1009.8
20260509042437 55 115 0.0 2.0 0.00 0.00 0.00 80 1009.9
20260509041933 55 101 1.0 3.0 0.00 0.00 0.00 79 1009.8
20260509041430 55 116 1.0 2.0 0.00 0.00 0.00 79 1010.1
20260509040928 55 89 0.0 2.0 0.00 0.00 0.00 79 1010.0
20260509040426 55 125 0.0 3.0 0.00 0.00 0.00 78 1010.1
20260509035922 55 81 2.0 2.0 0.00 0.00 0.00 78 1010.2
20260509035420 55 89 1.0 2.0 0.00 0.00 0.00 78 1010.1
20260509034916 55 195 2.0 3.0 0.00 0.00 0.00 77 1010.3
20260509034414 55 49 1.0 3.0 0.00 0.00 0.00 77 1010.2
20260509033911 56 56 0.0 2.0 0.00 0.00 0.00 76 1010.1
20260509033408 56 104 0.0 2.0 0.00 0.00 0.00 76 1010.1
20260509032904 56 126 2.0 2.0 0.00 0.00 0.00 75 1010.2
20260509032402 56 97 2.0 2.0 0.00 0.00 0.00 75 1010.1
20260509031900 56 100 2.0 2.0 0.00 0.00 0.00 75 1010.4
20260509031356 56 80 1.0 2.0 0.00 0.00 0.00 74 1010.3
20260509030854 56 133 0.0 1.0 0.00 0.00 0.00 75 1010.3
20260509030352 56 194 0.0 2.0 0.00 0.00 0.00 74 1010.2
20260509025849 56 119 2.0 2.0 0.00 0.00 0.00 73 1010.4
20260509025344 56 97 2.0 2.0 0.00 0.00 0.00 73 1010.5
20260509024839 56 129 0.0 2.0 0.00 0.00 0.00 72 1010.4
20260509024330 56 120 3.0 3.0 0.00 0.00 0.00 72 1010.2
20260509023827 56 88 1.0 2.0 0.00 0.00 0.00 72 1010.3
20260509023325 56 139 2.0 2.0 0.00 0.00 0.00 71 1010.1
20260509022821 56 120 0.0 1.0 0.00 0.00 0.00 70 1010.3
20260509022319 57 76 0.0 2.0 0.00 0.00 0.00 69 1010.4
20260509021815 57 89 0.0 1.0 0.00 0.00 0.00 69 1010.2
20260509021312 57 68 1.0 2.0 0.00 0.00 0.00 69 1010.1
20260509020810 57 50 0.0 1.0 0.00 0.00 0.00 67 1010.2
20260509020308 57 48 0.0 2.0 0.00 0.00 0.00 67 1010.2
20260509015805 58 87 2.0 3.0 0.00 0.00 0.00 66 1010.1
20260509015306 58 55 0.0 1.0 0.00 0.00 0.00 65 1010.1
20260509014759 58 106 2.0 2.0 0.00 0.00 0.00 65 1010.1
20260509014257 58 107 1.0 2.0 0.00 0.00 0.00 64 1010.0
20260509013753 59 130 0.0 2.0 0.00 0.00 0.00 62 1010.1
20260509013248 59 82 2.0 2.0 0.00 0.00 0.00 62 1009.9
20260509012745 59 74 2.0 2.0 0.00 0.00 0.00 62 1009.9
20260509012242 59 68 2.0 2.0 0.00 0.00 0.00 60 1009.9
20260509011740 59 69 0.0 2.0 0.00 0.00 0.00 61 1009.8
20260509011237 60 80 1.0 3.0 0.00 0.00 0.00 60 1009.9
20260509010735 60 82 2.0 3.0 0.00 0.00 0.00 60 1009.6
20260509010231 60 95 2.0 3.0 0.00 0.00 0.00 61 1009.6
20260509005729 60 132 0.0 2.0 0.00 0.00 0.00 62 1009.5
20260509005226 60 89 1.0 3.0 0.00 0.00 0.00 63 1009.6
20260509004726 60 84 0.0 2.0 0.00 0.00 0.00 63 1009.6
20260509004224 60 247 0.0 1.0 0.00 0.00 0.00 63 1009.8
20260509003722 60 99 1.0 2.0 0.00 0.00 0.00 64 1009.6
20260509003219 60 70 1.0 2.0 0.00 0.00 0.00 64 1009.4
20260509002716 60 38 0.0 1.0 0.00 0.00 0.00 65 1009.4
20260509002214 61 82 0.0 2.0 0.00 0.00 0.00 64 1009.7
20260509001711 61 83 1.0 2.0 0.00 0.00 0.00 62 1009.6
20260509001206 61 60 0.0 2.0 0.00 0.00 0.00 62 1009.2
20260509000704 61 71 1.0 2.0 0.00 0.00 0.00 61 1009.4
20260509000156 61 103 1.0 2.0 0.00 0.00 0.00 59 1009.1
20260508235653 61 49 0.0 1.0 0.00 0.00 0.00 56 1009.1
20260508235149 62 62 1.0 2.0 0.00 0.00 0.00 51 1009.3
20260508234646 62 50 0.0 1.0 0.00 0.00 0.00 50 1009.2
20260508234142 63 44 0.0 0.0 0.00 0.00 0.00 53 1009.0
20260508233637 63 44 0.0 1.0 0.00 0.00 0.00 55 1009.1
20260508233134 63 85 0.0 1.0 0.00 0.00 0.00 55 1008.9
20260508232631 63 68 0.0 0.0 0.00 0.00 0.00 54 1008.9
20260508232128 64 51 0.0 1.0 0.00 0.00 0.00 55 1008.7
20260508231626 64 33 1.0 1.0 0.00 0.00 0.00 56 1008.8
20260508231123 65 55 0.0 0.0 0.00 0.00 0.00 53 1008.6
20260508230619 65 110 0.0 2.0 0.00 0.00 0.00 52 1008.7
20260508230115 65 89 0.0 2.0 0.00 0.00 0.00 50 1008.9
20260508225614 65 89 0.0 2.0 0.00 0.00 0.00 50 1008.8
20260508225109 65 50 0.0 1.0 0.00 0.00 0.00 48 1008.7
20260508224607 65 102 2.0 2.0 0.00 0.00 0.00 48 1008.9
20260508224104 66 42 1.0 2.0 0.00 0.00 0.00 46 1009.1
20260508223602 66 55 0.0 2.0 0.00 0.00 0.00 46 1009.0
20260508223059 66 50 1.0 2.0 0.00 0.00 0.00 45 1009.0
20260508222556 66 93 1.0 2.0 0.00 0.00 0.00 45 1009.0
20260508222054 66 65 1.0 2.0 0.00 0.00 0.00 44 1009.0
20260508221549 66 55 0.0 2.0 0.00 0.00 0.00 44 1008.9
20260508221045 66 122 0.0 2.0 0.00 0.00 0.00 44 1008.9
20260508220542 66 117 2.0 2.0 0.00 0.00 0.00 43 1008.9
20260508220038 67 66 1.0 3.0 0.00 0.00 0.00 43 1008.8
20260508215536 67 120 2.0 4.0 0.00 0.00 0.00 42 1009.0
20260508215032 67 91 3.0 4.0 0.00 0.00 0.00 42 1008.8
20260508214530 68 54 2.0 3.0 0.00 0.00 0.00 43 1008.8
20260508214026 68 200 2.0 3.0 0.00 0.00 0.00 41 1008.7
20260508213524 68 26 1.0 2.0 0.00 0.00 0.00 37 1008.9
20260508213019 69 184 1.0 2.0 0.00 0.00 0.00 37 1009.0
20260508212516 69 305 2.0 3.0 0.00 0.00 0.00 35 1009.1
20260508212012 69 16 0.0 1.0 0.00 0.00 0.00 39 1009.1
20260508211508 69 71 0.0 3.0 0.00 0.00 0.00 38 1009.2
20260508211004 69 0 3.0 4.0 0.00 0.00 0.00 37 1008.9
20260508210501 69 145 1.0 4.0 0.00 0.00 0.00 37 1009.1
20260508205957 69 89 1.0 2.0 0.00 0.00 0.00 36 1008.9
20260508205455 69 117 2.0 3.0 0.00 0.00 0.00 37 1009.3
20260508204951 69 281 2.0 3.0 0.00 0.00 0.00 35 1009.2
20260508204449 68 169 3.0 4.0 0.00 0.00 0.00 35 1009.3
20260508203944 68 210 0.0 3.0 0.00 0.00 0.00 37 1009.3
20260508203440 69 89 2.0 3.0 0.00 0.00 0.00 38 1009.5
20260508202936 69 162 2.0 3.0 0.00 0.00 0.00 36 1009.4
20260508202434 70 96 0.0 2.0 0.00 0.00 0.00 36 1009.3
20260508201930 69 254 1.0 3.0 0.00 0.00 0.00 36 1009.5
20260508201427 69 104 4.0 4.0 0.00 0.00 0.00 36 1009.5
20260508200924 69 94 2.0 3.0 0.00 0.00 0.00 36 1009.5
20260508200421 69 26 2.0 3.0 0.00 0.00 0.00 38 1009.6
20260508195916 69 108 2.0 5.0 0.00 0.00 0.00 36 1009.7
20260508195413 69 15 2.0 3.0 0.00 0.00 0.00 36 1009.6
20260508194909 70 86 3.0 4.0 0.00 0.00 0.00 38 1009.8
20260508194406 69 157 0.0 4.0 0.00 0.00 0.00 38 1009.9
20260508193903 69 216 1.0 5.0 0.00 0.00 0.00 36 1010.1
20260508193400 69 191 2.0 3.0 0.00 0.00 0.00 36 1010.1
20260508192856 69 254 4.0 6.0 0.00 0.00 0.00 38 1010.1
20260508192353 68 213 3.0 5.0 0.00 0.00 0.00 38 1010.2
20260508191851 68 280 1.0 4.0 0.00 0.00 0.00 37 1010.3
20260508191348 69 251 0.0 3.0 0.00 0.00 0.00 37 1010.3
20260508190845 69 229 3.0 3.0 0.00 0.00 0.00 37 1010.3
20260508190341 68 149 2.0 4.0 0.00 0.00 0.00 36 1010.3
20260508185837 68 171 1.0 3.0 0.00 0.00 0.00 38 1010.4
20260508185335 68 159 0.0 4.0 0.00 0.00 0.00 39 1010.7
20260508184832 67 100 2.0 3.0 0.00 0.00 0.00 38 1010.7
20260508184330 68 153 1.0 3.0 0.00 0.00 0.00 37 1010.7
20260508183826 68 109 2.0 3.0 0.00 0.00 0.00 36 1010.7
20260508183323 67 87 3.0 4.0 0.00 0.00 0.00 37 1010.7
20260508182818 67 344 0.0 3.0 0.00 0.00 0.00 37 1010.8
20260508182316 67 101 1.0 3.0 0.00 0.00 0.00 39 1011.1
20260508181811 68 84 3.0 6.0 0.00 0.00 0.00 36 1011.1
20260508181308 67 63 3.0 3.0 0.00 0.00 0.00 39 1011.1
20260508180759 67 42 0.0 3.0 0.00 0.00 0.00 41 1011.0
20260508180256 66 258 2.0 2.0 0.00 0.00 0.00 40 1011.0
20260508175753 65 102 3.0 3.0 0.00 0.00 0.00 40 1011.1
20260508175249 66 98 4.0 4.0 0.00 0.00 0.00 37 1011.1
20260508174747 66 216 3.0 4.0 0.00 0.00 0.00 39 1011.2
20260508174245 65 78 5.0 5.0 0.00 0.00 0.00 40 1011.1
20260508173741 66 92 4.0 4.0 0.00 0.00 0.00 39 1011.3
20260508173236 65 77 2.0 5.0 0.00 0.00 0.00 40 1011.5
20260508172728 65 241 0.0 3.0 0.00 0.00 0.00 40 1011.5
20260508172225 66 56 2.0 3.0 0.00 0.00 0.00 43 1011.1
20260508171721 66 352 0.0 5.0 0.00 0.00 0.00 40 1011.7
20260508171217 66 134 3.0 4.0 0.00 0.00 0.00 42 1011.6
20260508170714 66 209 0.0 5.0 0.00 0.00 0.00 39 1011.4
20260508170212 64 131 2.0 3.0 0.00 0.00 0.00 37 1011.7
20260508165709 65 134 2.0 9.0 0.00 0.00 0.00 37 1011.7
20260508165206 65 249 0.0 3.0 0.00 0.00 0.00 37 1011.9
20260508164703 64 173 3.0 3.0 0.00 0.00 0.00 35 1011.8
20260508164159 64 152 2.0 4.0 0.00 0.00 0.00 34 1011.9
20260508163657 63 177 3.0 4.0 0.00 0.00 0.00 32 1011.9
20260508163154 65 142 1.0 2.0 0.00 0.00 0.00 33 1011.9
20260508162649 64 320 0.0 3.0 0.00 0.00 0.00 32 1011.8
20260508162148 63 226 2.0 3.0 0.00 0.00 0.00 35 1012.2
20260508161645 63 21 1.0 4.0 0.00 0.00 0.00 37 1012.0
20260508161142 63 21 2.0 5.0 0.00 0.00 0.00 41 1012.1
20260508160640 64 100 3.0 3.0 0.00 0.00 0.00 45 1012.3
20260508160137 63 146 2.0 3.0 0.00 0.00 0.00 47 1012.1
20260508155634 63 95 4.0 5.0 0.00 0.00 0.00 48 1012.4
20260508155131 63 162 0.0 5.0 0.00 0.00 0.00 48 1012.4
20260508154628 62 93 2.0 3.0 0.00 0.00 0.00 49 1012.3
20260508154124 63 152 2.0 3.0 0.00 0.00 0.00 48 1012.4
20260508153621 63 209 3.0 4.0 0.00 0.00 0.00 46 1012.5
20260508153117 62 344 1.0 4.0 0.00 0.00 0.00 48 1012.4
20260508152609 62 308 0.0 3.0 0.00 0.00 0.00 52 1012.5
20260508152104 62 198 3.0 4.0 0.00 0.00 0.00 50 1012.4
20260508151601 63 107 3.0 3.0 0.00 0.00 0.00 47 1012.4
20260508151058 62 24 0.0 3.0 0.00 0.00 0.00 48 1012.3
20260508150555 62 199 2.0 3.0 0.00 0.00 0.00 48 1012.6
20260508150051 63 196 4.0 4.0 0.00 0.00 0.00 44 1012.7
20260508145548 63 139 1.0 4.0 0.00 0.00 0.00 40 1012.6
20260508145044 62 32 1.0 2.0 0.00 0.00 0.00 39 1012.4
20260508144542 62 194 1.0 2.0 0.00 0.00 0.00 36 1012.6
20260508144039 61 244 1.0 3.0 0.00 0.00 0.00 38 1012.6
20260508143537 62 191 2.0 2.0 0.00 0.00 0.00 39 1012.5
20260508143033 62 79 1.0 4.0 0.00 0.00 0.00 38 1012.7
20260508142530 60 6 0.0 2.0 0.00 0.00 0.00 36 1012.6
20260508142027 60 355 0.0 3.0 0.00 0.00 0.00 37 1012.8
20260508141523 60 93 1.0 2.0 0.00 0.00 0.00 35 1012.7
20260508141021 58 199 2.0 3.0 0.00 0.00 0.00 35 1012.8
20260508140518 60 237 0.0 3.0 0.00 0.00 0.00 39 1012.7
20260508140014 57 175 0.0 2.0 0.00 0.00 0.00 40 1012.9
20260508135510 59 82 2.0 2.0 0.00 0.00 0.00 40 1012.9
20260508135007 58 268 1.0 2.0 0.00 0.00 0.00 41 1013.0
20260508134503 57 194 1.0 4.0 0.00 0.00 0.00 41 1012.9
20260508134000 58 209 1.0 3.0 0.00 0.00 0.00 40 1013.0
20260508133457 57 282 2.0 2.0 0.00 0.00 0.00 42 1012.8
20260508132954 57 155 0.0 2.0 0.00 0.00 0.00 42 1012.7
20260508132452 57 295 1.0 3.0 0.00 0.00 0.00 43 1012.8
20260508131948 57 254 0.0 3.0 0.00 0.00 0.00 48 1012.9
20260508131444 56 240 0.0 3.0 0.00 0.00 0.00 48 1012.8
20260508130941 56 220 3.0 3.0 0.00 0.00 0.00 53 1013.0
20260508130438 56 235 1.0 2.0 0.00 0.00 0.00 55 1012.7
20260508125933 56 26 0.0 3.0 0.00 0.00 0.00 56 1012.8
20260508125430 55 269 0.0 1.0 0.00 0.00 0.00 58 1012.8
20260508124928 55 30 1.0 2.0 0.00 0.00 0.00 59 1012.6
20260508124425 54 324 0.0 3.0 0.00 0.00 0.00 61 1012.6
20260508123923 54 190 2.0 2.0 0.00 0.00 0.00 62 1012.5
20260508123421 54 186 1.0 3.0 0.00 0.00 0.00 63 1012.5
20260508122917 53 48 0.0 3.0 0.00 0.00 0.00 71 1012.5
20260508122415 52 290 2.0 2.0 0.00 0.00 0.00 71 1012.4
20260508121912 51 127 0.0 1.0 0.00 0.00 0.00 78 1012.3
20260508121410 50 175 0.0 2.0 0.00 0.00 0.00 78 1012.2
20260508120907 48 126 1.0 2.0 0.00 0.00 0.00 84 1012.2
20260508120405 46 344 0.0 2.0 0.00 0.00 0.00 96 1012.3
20260508115902 47 66 1.0 3.0 0.00 0.00 0.00 97 1012.1
20260508115400 47 69 2.0 3.0 0.00 0.00 0.00 98 1012.0
20260508114856 46 112 0.0 2.0 0.00 0.00 0.00 98 1011.9
20260508114353 46 114 1.0 3.0 0.00 0.00 0.00 98 1012.2
20260508113849 45 146 2.0 3.0 0.00 0.00 0.00 98 1011.8
20260508113348 44 130 2.0 3.0 0.00 0.00 0.00 98 1011.9
20260508112844 44 173 1.0 3.0 0.00 0.00 0.00 98 1011.7
20260508112341 43 106 1.0 3.0 0.00 0.00 0.00 97 1011.6
20260508111838 43 98 2.0 3.0 0.00 0.00 0.00 97 1011.6
20260508111335 43 125 2.0 3.0 0.00 0.00 0.00 97 1011.5
20260508110832 42 114 2.0 3.0 0.00 0.00 0.00 97 1011.6
20260508110330 42 120 2.0 3.0 0.00 0.00 0.00 97 1011.7
20260508105829 42 91 2.0 3.0 0.00 0.00 0.00 97 1011.4
20260508105326 42 89 2.0 3.0 0.00 0.00 0.00 97 1011.3
20260508104823 42 85 2.0 3.0 0.00 0.00 0.00 97 1011.3
20260508104320 42 99 2.0 3.0 0.00 0.00 0.00 97 1011.1
20260508103817 42 92 1.0 3.0 0.00 0.00 0.00 97 1011.1
20260508103314 42 118 2.0 3.0 0.00 0.00 0.00 97 1011.1
20260508102812 42 115 1.0 4.0 0.00 0.00 0.00 97 1011.1
20260508102310 42 113 2.0 4.0 0.00 0.00 0.00 97 1010.8
20260508101806 43 110 2.0 3.0 0.00 0.00 0.00 97 1010.7
20260508101304 43 112 2.0 2.0 0.00 0.00 0.00 97 1011.0
20260508100801 43 107 2.0 3.0 0.00 0.00 0.00 97 1010.9
20260508100300 43 102 2.0 3.0 0.00 0.00 0.00 97 1010.6
20260508095755 43 103 2.0 2.0 0.00 0.00 0.00 97 1010.9
20260508095253 44 89 2.0 3.0 0.00 0.00 0.00 97 1010.7
20260508094749 44 120 2.0 3.0 0.00 0.00 0.00 97 1010.6
20260508094247 44 106 2.0 3.0 0.00 0.00 0.00 97 1010.7
20260508093744 44 121 1.0 2.0 0.00 0.00 0.00 97 1010.5
20260508093241 44 141 0.0 2.0 0.00 0.00 0.00 97 1010.6
20260508092738 44 101 0.0 2.0 0.00 0.00 0.00 97 1010.6
20260508092236 44 136 1.0 3.0 0.00 0.00 0.00 97 1010.6
20260508091734 44 114 2.0 2.0 0.00 0.00 0.00 97 1010.4
20260508091231 45 127 2.0 3.0 0.00 0.00 0.00 97 1010.6
20260508090728 45 95 0.0 3.0 0.00 0.00 0.00 97 1010.3